Time,TemperatureF,DewpointF,PressureIn,WindDirection,WindDirectionDegrees,WindSpeedMPH,WindSpeedGustMPH,Humidity,HourlyPrecipIn,Conditions,Clouds,dailyrainin,SoftwareType,DateUTC
2013-01-29 00:05:00,46.0,45.8,30.29,South,188,0.0,0.0,99,0.00,RA,,0.00,WeatherDisplay:10.37,2013-01-29 05:05:00,
2013-01-29 00:15:00,45.7,45.4,30.29,South,188,0.0,0.0,99,0.00,CLR,,0.00,WeatherDisplay:10.37,2013-01-29 05:15:00,
2013-01-29 00:20:00,45.5,45.2,30.29,South,188,0.0,0.0,99,0.00,CLR,,0.00,WeatherDisplay:10.37,2013-01-29 05:20:00,
2013-01-29 00:25:00,45.5,45.2,30.29,South,188,0.0,0.0,99,0.00,CLR,,0.00,WeatherDisplay:10.37,2013-01-29 05:25:00,
2013-01-29 00:30:00,45.3,45.1,30.29,South,188,0.0,0.0,99,0.00,CLR,,0.00,WeatherDisplay:10.37,2013-01-29 05:30:00,
2013-01-29 00:35:00,45.3,45.1,30.28,South,188,0.0,0.0,99,0.00,CLR,,0.00,WeatherDisplay:10.37,2013-01-29 05:35:00,
2013-01-29 00:40:00,45.2,45.0,30.28,South,188,0.0,0.0,99,0.00,CLR,,0.00,WeatherDisplay:10.37,2013-01-29 05:40:00,
2013-01-29 00:45:00,45.1,44.9,30.28,South,188,0.0,0.0,99,0.00,CLR,,0.00,WeatherDisplay:10.37,2013-01-29 05:45:00,
2013-01-29 00:50:00,45.1,44.9,30.28,South,188,0.0,0.0,99,0.00,CLR,,0.00,WeatherDisplay:10.37,2013-01-29 05:50:00,
2013-01-29 00:55:00,45.0,44.7,30.28,South,188,0.0,0.0,99,0.00,CLR,,0.00,WeatherDisplay:10.37,2013-01-29 05:55:00,
2013-01-29 01:00:00,45.0,44.7,30.29,South,188,0.0,0.0,99,0.00,CLR,,0.00,WeatherDisplay:10.37,2013-01-29 06:00:00,
2013-01-29 01:05:00,45.0,44.7,30.28,South,188,0.0,0.0,99,0.00,CLR,,0.00,WeatherDisplay:10.37,2013-01-29 06:05:00,
2013-01-29 01:10:00,44.8,44.5,30.28,South,188,0.0,0.0,99,0.00,CLR,,0.00,WeatherDisplay:10.37,2013-01-29 06:10:00,
2013-01-29 01:15:00,44.8,44.5,30.28,South,188,0.0,0.0,99,0.00,CLR,,0.00,WeatherDisplay:10.37,2013-01-29 06:15:00,
2013-01-29 01:20:00,44.6,44.3,30.28,South,188,0.0,0.0,99,0.00,CLR,,0.00,WeatherDisplay:10.37,2013-01-29 06:20:00,
2013-01-29 01:25:00,44.6,44.3,30.28,South,188,0.0,0.0,99,0.00,CLR,,0.00,WeatherDisplay:10.37,2013-01-29 06:25:00,
2013-01-29 01:30:00,44.4,44.2,30.28,South,188,0.0,0.0,99,0.00,CLR,,0.00,WeatherDisplay:10.37,2013-01-29 06:30:00,
2013-01-29 01:35:00,44.4,44.2,30.28,South,188,0.0,0.0,99,0.00,CLR,,0.00,WeatherDisplay:10.37,2013-01-29 06:35:00,
2013-01-29 01:40:00,44.2,44.0,30.28,South,188,0.0,0.0,99,0.00,CLR,,0.00,WeatherDisplay:10.37,2013-01-29 06:40:00,
2013-01-29 01:45:00,44.1,43.8,30.27,South,188,0.0,0.0,99,0.00,CLR,,0.00,WeatherDisplay:10.37,2013-01-29 06:45:00,
2013-01-29 01:50:00,44.1,43.8,30.27,South,188,0.0,1.0,99,0.00,CLR,,0.00,WeatherDisplay:10.37,2013-01-29 06:50:00,
2013-01-29 01:55:00,44.1,43.8,30.27,South,188,0.0,0.0,99,0.00,CLR,,0.00,WeatherDisplay:10.37,2013-01-29 06:55:00,
2013-01-29 02:00:00,44.1,43.8,30.27,South,188,0.0,0.0,99,0.00,CLR,,0.00,WeatherDisplay:10.37,2013-01-29 07:00:00,
2013-01-29 02:05:00,44.1,43.8,30.27,South,188,0.0,0.0,99,0.00,CLR,,0.00,WeatherDisplay:10.37,2013-01-29 07:05:00,
2013-01-29 02:10:00,43.9,43.6,30.27,SSW,202,0.0,0.0,99,0.00,CLR,,0.00,WeatherDisplay:10.37,2013-01-29 07:10:00,
2013-01-29 02:15:00,43.9,43.6,30.27,SW,225,0.0,0.0,99,0.00,CLR,,0.00,WeatherDisplay:10.37,2013-01-29 07:15:00,
2013-01-29 02:20:00,43.9,43.6,30.27,SW,224,0.0,1.0,99,0.00,CLR,,0.00,WeatherDisplay:10.37,2013-01-29 07:20:00,
2013-01-29 02:25:00,43.9,43.6,30.27,SW,217,0.0,1.0,99,0.00,CLR,,0.00,WeatherDisplay:10.37,2013-01-29 07:25:00,
2013-01-29 02:30:00,43.9,43.6,30.27,SW,226,0.0,0.0,99,0.00,CLR,,0.00,WeatherDisplay:10.37,2013-01-29 07:30:00,
2013-01-29 02:40:00,43.9,43.6,30.27,SW,233,0.0,1.0,99,0.00,RA,,0.20,WeatherDisplay:10.37,2013-01-29 07:40:00,
2013-01-29 02:45:00,43.9,43.6,30.27,SW,233,0.0,0.0,99,0.00,,,0.20,WeatherDisplay:10.37,2013-01-29 07:45:00,
2013-01-29 02:50:00,43.9,43.6,30.27,SW,233,0.0,0.0,99,0.00,CLR,,0.20,WeatherDisplay:10.37,2013-01-29 07:50:00,
2013-01-29 02:55:00,43.9,43.6,30.27,SW,233,0.0,0.0,99,0.00,CLR,,0.20,WeatherDisplay:10.37,2013-01-29 07:55:00,
2013-01-29 03:00:00,43.9,43.6,30.27,SW,233,0.0,0.0,99,0.00,CLR,,0.20,WeatherDisplay:10.37,2013-01-29 08:00:00,
2013-01-29 03:05:00,43.9,43.6,30.27,SW,233,0.0,0.0,99,0.00,CLR,,0.20,WeatherDisplay:10.37,2013-01-29 08:05:00,
2013-01-29 03:10:00,43.7,43.4,30.27,SW,233,0.0,0.0,99,0.00,CLR,,0.20,WeatherDisplay:10.37,2013-01-29 08:10:00,
2013-01-29 03:15:00,43.7,43.4,30.26,SW,233,0.0,0.0,99,0.00,CLR,,0.20,WeatherDisplay:10.37,2013-01-29 08:15:00,
2013-01-29 03:20:00,43.7,43.4,30.27,SW,233,0.0,0.0,99,0.00,CLR,,0.20,WeatherDisplay:10.37,2013-01-29 08:20:00,
2013-01-29 03:25:00,43.7,43.4,30.26,SW,233,0.0,0.0,99,0.00,CLR,,0.20,WeatherDisplay:10.37,2013-01-29 08:25:00,
2013-01-29 03:30:00,43.7,43.4,30.26,SW,233,0.0,0.0,99,0.00,CLR,,0.20,WeatherDisplay:10.37,2013-01-29 08:30:00,
2013-01-29 03:35:00,43.7,43.4,30.27,SW,233,0.0,0.0,99,0.00,CLR,,0.20,WeatherDisplay:10.37,2013-01-29 08:35:00,
2013-01-29 03:40:00,43.7,43.4,30.26,SW,233,0.0,0.0,99,0.00,CLR,,0.20,WeatherDisplay:10.37,2013-01-29 08:40:00,
2013-01-29 03:45:00,43.7,43.4,30.26,SW,233,0.0,0.0,99,0.00,CLR,,0.20,WeatherDisplay:10.37,2013-01-29 08:45:00,
2013-01-29 03:50:00,43.7,43.4,30.26,SW,233,0.0,0.0,99,0.00,CLR,,0.20,WeatherDisplay:10.37,2013-01-29 08:50:00,
2013-01-29 03:55:00,43.7,43.4,30.26,SW,233,0.0,0.0,99,0.00,CLR,,0.20,WeatherDisplay:10.37,2013-01-29 08:55:00,
2013-01-29 04:00:00,43.7,43.4,30.26,SW,233,0.0,0.0,99,0.00,CLR,,0.20,WeatherDisplay:10.37,2013-01-29 09:00:00,
2013-01-29 04:05:00,43.5,43.3,30.26,SW,233,0.0,0.0,99,0.00,CLR,,0.20,WeatherDisplay:10.37,2013-01-29 09:05:00,
2013-01-29 04:10:00,43.5,43.3,30.26,SW,233,0.0,1.0,99,0.00,CLR,,0.20,WeatherDisplay:10.37,2013-01-29 09:10:00,
2013-01-29 04:15:00,43.5,43.3,30.26,SW,233,0.0,0.0,99,0.00,CLR,,0.20,WeatherDisplay:10.37,2013-01-29 09:15:00,
2013-01-29 04:20:00,43.5,43.3,30.26,SW,233,0.0,0.0,99,0.00,CLR,,0.20,WeatherDisplay:10.37,2013-01-29 09:20:00,
2013-01-29 04:25:00,43.3,43.1,30.26,SW,233,0.0,0.0,99,0.00,CLR,,0.20,WeatherDisplay:10.37,2013-01-29 09:25:00,
2013-01-29 04:30:00,43.3,43.1,30.26,SW,233,0.0,0.0,99,0.00,CLR,,0.20,WeatherDisplay:10.37,2013-01-29 09:30:00,
2013-01-29 04:35:00,43.3,43.1,30.26,SW,233,0.0,0.0,99,0.00,CLR,,0.20,WeatherDisplay:10.37,2013-01-29 09:35:00,
2013-01-29 04:40:00,43.3,43.1,30.26,SW,233,0.0,0.0,99,0.00,CLR,,0.20,WeatherDisplay:10.37,2013-01-29 09:40:00,
2013-01-29 04:45:00,43.3,43.1,30.26,SW,233,0.0,0.0,99,0.00,CLR,,0.20,WeatherDisplay:10.37,2013-01-29 09:45:00,
2013-01-29 04:50:00,43.3,43.1,30.26,SW,216,0.0,2.0,99,0.00,CLR,,0.20,WeatherDisplay:10.37,2013-01-29 09:50:00,
2013-01-29 04:55:00,43.3,43.1,30.26,SSW,210,0.0,2.0,99,0.00,CLR,,0.20,WeatherDisplay:10.37,2013-01-29 09:55:00,
2013-01-29 05:00:00,43.2,42.9,30.26,SSW,201,0.0,2.0,99,0.00,CLR,,0.20,WeatherDisplay:10.37,2013-01-29 10:00:00,
2013-01-29 05:05:00,43.3,43.0,30.25,South,188,1.0,2.0,99,0.00,CLR,,0.20,WeatherDisplay:10.37,2013-01-29 10:05:00,
2013-01-29 05:10:00,43.2,42.9,30.25,South,188,0.0,2.0,99,0.00,CLR,,0.20,WeatherDisplay:10.37,2013-01-29 10:10:00,
2013-01-29 05:20:00,43.3,43.1,30.26,West,272,0.0,0.0,99,0.00,CLR,,0.20,WeatherDisplay:10.37,2013-01-29 10:20:00,
2013-01-29 05:25:00,43.3,43.1,30.25,West,278,0.0,0.0,99,0.00,CLR,,0.20,WeatherDisplay:10.37,2013-01-29 10:25:00,
2013-01-29 05:30:00,43.3,43.1,30.26,West,278,0.0,0.0,99,0.00,CLR,,0.20,WeatherDisplay:10.37,2013-01-29 10:30:00,
2013-01-29 05:35:00,43.3,43.1,30.25,West,278,0.0,0.0,99,0.00,CLR,,0.20,WeatherDisplay:10.37,2013-01-29 10:35:00,
2013-01-29 05:40:00,43.3,43.1,30.26,West,278,0.0,0.0,99,0.00,CLR,,0.20,WeatherDisplay:10.37,2013-01-29 10:40:00,
2013-01-29 05:45:00,43.3,43.1,30.26,West,278,0.0,0.0,99,0.00,CLR,,0.20,WeatherDisplay:10.37,2013-01-29 10:45:00,
2013-01-29 05:50:00,43.3,43.1,30.26,West,278,0.0,0.0,99,0.00,CLR,,0.20,WeatherDisplay:10.37,2013-01-29 10:50:00,
2013-01-29 05:55:00,43.5,43.3,30.26,West,278,0.0,0.0,99,0.00,CLR,,0.20,WeatherDisplay:10.37,2013-01-29 10:55:00,
2013-01-29 06:00:00,43.5,43.3,30.26,West,260,0.0,1.0,99,0.00,CLR,,0.20,WeatherDisplay:10.37,2013-01-29 11:00:00,
2013-01-29 06:05:00,43.5,43.3,30.26,WSW,237,0.0,0.0,99,0.00,CLR,,0.20,WeatherDisplay:10.37,2013-01-29 11:05:00,
2013-01-29 06:10:00,43.5,43.3,30.26,SW,233,0.0,1.0,99,0.00,CLR,,0.20,WeatherDisplay:10.37,2013-01-29 11:10:00,
2013-01-29 06:15:00,43.5,43.3,30.26,SSW,211,0.0,0.0,99,0.00,CLR,,0.20,WeatherDisplay:10.37,2013-01-29 11:15:00,
2013-01-29 06:20:00,43.5,43.3,30.26,South,180,0.0,1.0,99,0.00,CLR,,0.20,WeatherDisplay:10.37,2013-01-29 11:20:00,
2013-01-29 06:25:00,43.3,43.1,30.26,SSW,201,0.0,1.0,99,0.00,CLR,,0.20,WeatherDisplay:10.37,2013-01-29 11:25:00,
2013-01-29 06:30:00,43.3,43.1,30.26,WSW,257,0.0,0.0,99,0.00,CLR,,0.20,WeatherDisplay:10.37,2013-01-29 11:30:00,
2013-01-29 06:35:00,43.3,43.1,30.26,WSW,245,0.0,0.0,99,0.00,CLR,,0.20,WeatherDisplay:10.37,2013-01-29 11:35:00,
2013-01-29 06:40:00,43.5,43.3,30.26,South,179,0.0,0.0,99,0.00,CLR,,0.20,WeatherDisplay:10.37,2013-01-29 11:40:00,
2013-01-29 06:45:00,43.5,43.3,30.26,South,184,0.0,0.0,99,0.00,CLR,,0.20,WeatherDisplay:10.37,2013-01-29 11:45:00,
2013-01-29 06:50:00,43.5,43.3,30.26,South,188,0.0,0.0,99,0.00,CLR,,0.20,WeatherDisplay:10.37,2013-01-29 11:50:00,
2013-01-29 06:55:00,43.5,43.2,30.27,South,188,0.0,0.0,99,0.00,CLR,,0.20,WeatherDisplay:10.37,2013-01-29 11:55:00,
2013-01-29 07:00:00,43.3,43.1,30.27,South,188,0.0,0.0,99,0.00,CLR,,0.20,WeatherDisplay:10.37,2013-01-29 12:00:00,
2013-01-29 07:05:00,43.3,43.1,30.27,South,188,0.0,0.0,99,0.00,CLR,,0.20,WeatherDisplay:10.37,2013-01-29 12:05:00,
2013-01-29 07:10:00,43.3,43.1,30.27,South,188,0.0,0.0,99,0.00,CLR,,0.20,WeatherDisplay:10.37,2013-01-29 12:10:00,
2013-01-29 07:15:00,43.3,43.1,30.27,South,188,0.0,1.0,99,0.00,CLR,,0.20,WeatherDisplay:10.37,2013-01-29 12:15:00,
2013-01-29 07:25:00,43.3,43.1,30.27,South,188,1.0,2.0,99,0.00,CLR,,0.20,WeatherDisplay:10.37,2013-01-29 12:25:00,
2013-01-29 07:30:00,43.6,43.3,30.27,South,188,0.0,2.0,99,0.00,CLR,,0.20,WeatherDisplay:10.37,2013-01-29 12:30:00,
2013-01-29 07:35:00,43.7,43.4,30.27,South,188,0.0,1.0,99,0.00,CLR,,0.20,WeatherDisplay:10.37,2013-01-29 12:35:00,
2013-01-29 07:40:00,43.9,43.6,30.27,South,188,0.0,1.0,99,0.00,CLR,,0.20,WeatherDisplay:10.37,2013-01-29 12:40:00,
2013-01-29 07:45:00,44.1,43.8,30.27,South,188,0.0,2.0,99,0.00,CLR,,0.20,WeatherDisplay:10.37,2013-01-29 12:45:00,
2013-01-29 07:50:00,44.4,44.2,30.27,South,188,0.0,2.0,99,0.00,CLR,,0.20,WeatherDisplay:10.37,2013-01-29 12:50:00,
2013-01-29 07:55:00,44.6,44.4,30.27,South,188,0.0,0.0,99,0.00,CLR,,0.20,WeatherDisplay:10.37,2013-01-29 12:55:00,
2013-01-29 08:00:00,45.0,44.7,30.27,SW,230,0.0,0.0,99,0.00,CLR,,0.20,WeatherDisplay:10.37,2013-01-29 13:00:00,
2013-01-29 08:05:00,45.1,44.9,30.27,NW,317,0.0,0.0,99,0.00,CLR,,0.20,WeatherDisplay:10.37,2013-01-29 13:05:00,
2013-01-29 08:10:00,45.7,45.4,30.27,NW,323,0.0,0.0,99,0.00,CLR,,0.20,WeatherDisplay:10.37,2013-01-29 13:10:00,
2013-01-29 08:15:00,46.1,45.8,30.27,NNW,327,0.0,1.0,99,0.00,CLR,,0.20,WeatherDisplay:10.37,2013-01-29 13:15:00,
2013-01-29 08:25:00,46.9,46.7,30.27,NW,313,0.0,1.0,99,0.00,CLR,,0.20,WeatherDisplay:10.37,2013-01-29 13:25:00,
2013-01-29 08:30:00,47.7,47.4,30.27,SW,226,0.0,1.0,99,0.00,CLR,,0.20,WeatherDisplay:10.37,2013-01-29 13:30:00,
2013-01-29 08:35:00,48.2,47.9,30.27,South,188,0.0,0.0,99,0.00,CLR,,0.20,WeatherDisplay:10.37,2013-01-29 13:35:00,
2013-01-29 08:40:00,48.9,48.6,30.27,South,188,0.0,0.0,99,0.00,CLR,,0.20,WeatherDisplay:10.37,2013-01-29 13:40:00,
2013-01-29 08:45:00,49.4,49.1,30.27,South,188,0.0,0.0,99,0.00,CLR,,0.20,WeatherDisplay:10.37,2013-01-29 13:45:00,
2013-01-29 08:50:00,49.9,49.6,30.27,SSW,200,0.0,0.0,99,0.00,CLR,,0.20,WeatherDisplay:10.37,2013-01-29 13:50:00,
2013-01-29 08:55:00,50.2,49.9,30.27,WNW,299,0.0,0.0,99,0.00,CLR,,0.20,WeatherDisplay:10.37,2013-01-29 13:55:00,
2013-01-29 09:00:00,50.7,50.4,30.27,NW,323,0.0,0.0,99,0.00,CLR,,0.20,WeatherDisplay:10.37,2013-01-29 14:00:00,
2013-01-29 09:05:00,51.0,50.7,30.27,NW,323,0.0,0.0,99,0.00,CLR,,0.20,WeatherDisplay:10.37,2013-01-29 14:05:00,
2013-01-29 09:10:00,51.3,51.0,30.27,NW,323,0.0,0.0,99,0.00,CLR,,0.20,WeatherDisplay:10.37,2013-01-29 14:10:00,
2013-01-29 09:15:00,51.6,51.3,30.27,WNW,298,0.0,0.0,99,0.00,CLR,,0.20,WeatherDisplay:10.37,2013-01-29 14:15:00,
2013-01-29 09:20:00,52.2,51.9,30.28,West,261,0.0,1.0,99,0.00,CLR,,0.20,WeatherDisplay:10.37,2013-01-29 14:20:00,
2013-01-29 09:25:00,52.6,52.3,30.28,WNW,294,0.0,1.0,99,0.00,CLR,,0.20,WeatherDisplay:10.37,2013-01-29 14:25:00,
2013-01-29 09:30:00,53.1,52.8,30.27,WNW,298,0.0,2.0,99,0.00,CLR,,0.20,WeatherDisplay:10.37,2013-01-29 14:30:00,
2013-01-29 09:35:00,53.4,53.1,30.28,West,274,0.0,0.0,99,0.00,CLR,,0.20,WeatherDisplay:10.37,2013-01-29 14:35:00,
2013-01-29 09:40:00,53.9,53.6,30.27,WNW,291,0.0,2.0,99,0.00,CLR,,0.20,WeatherDisplay:10.37,2013-01-29 14:40:00,
2013-01-29 09:45:00,54.2,53.9,30.27,WNW,298,0.0,1.0,99,0.00,CLR,,0.20,WeatherDisplay:10.37,2013-01-29 14:45:00,
2013-01-29 09:50:00,54.7,54.4,30.27,West,272,0.0,1.0,99,0.00,CLR,,0.20,WeatherDisplay:10.37,2013-01-29 14:50:00,
2013-01-29 09:55:00,55.4,55.1,30.27,SW,231,0.0,2.0,99,0.00,CLR,,0.20,WeatherDisplay:10.37,2013-01-29 14:55:00,
2013-01-29 10:00:00,55.9,55.7,30.27,SW,219,0.0,2.0,99,0.00,CLR,,0.20,WeatherDisplay:10.37,2013-01-29 15:00:00,
2013-01-29 10:05:00,56.4,56.1,30.27,WSW,239,0.0,2.0,99,0.00,CLR,,0.20,WeatherDisplay:10.37,2013-01-29 15:05:00,
2013-01-29 10:10:00,56.8,56.6,30.27,WNW,283,0.0,2.0,99,0.00,CLR,,0.20,WeatherDisplay:10.37,2013-01-29 15:10:00,
2013-01-29 10:15:00,57.5,57.2,30.27,WNW,293,0.0,1.0,99,0.00,CLR,,0.20,WeatherDisplay:10.37,2013-01-29 15:15:00,
2013-01-29 10:20:00,58.5,58.2,30.27,WNW,293,0.0,2.0,99,0.00,CLR,,0.20,WeatherDisplay:10.37,2013-01-29 15:20:00,
2013-01-29 10:25:00,59.4,59.1,30.27,NW,304,1.0,2.0,99,0.00,CLR,,0.20,WeatherDisplay:10.37,2013-01-29 15:25:00,
2013-01-29 10:30:00,60.1,59.8,30.26,WNW,293,1.0,3.0,99,0.00,CLR,,0.20,WeatherDisplay:10.37,2013-01-29 15:30:00,
2013-01-29 10:40:00,61.4,61.1,30.26,SSW,203,0.0,3.0,99,0.00,CLR,,0.20,WeatherDisplay:10.37,2013-01-29 15:40:00,
2013-01-29 10:45:00,62.5,62.2,30.26,SW,234,0.0,2.0,99,0.00,CLR,,0.20,WeatherDisplay:10.37,2013-01-29 15:45:00,
2013-01-29 10:50:00,63.5,63.2,30.26,West,280,0.0,2.0,99,0.00,CLR,,0.20,WeatherDisplay:10.37,2013-01-29 15:50:00,
2013-01-29 10:55:00,64.5,64.2,30.26,West,273,0.0,1.0,99,0.00,CLR,,0.20,WeatherDisplay:10.37,2013-01-29 15:55:00,
2013-01-29 11:00:00,65.7,65.5,30.26,WNW,282,0.0,2.0,99,0.00,CLR,,0.20,WeatherDisplay:10.37,2013-01-29 16:00:00,
2013-01-29 11:05:00,66.7,66.5,30.26,WNW,291,0.0,2.0,99,0.00,CLR,,0.20,WeatherDisplay:10.37,2013-01-29 16:05:00,
2013-01-29 11:15:00,68.8,68.5,30.25,West,260,0.0,3.0,99,0.00,CLR,,0.20,WeatherDisplay:10.37,2013-01-29 16:15:00,
2013-01-29 11:25:00,70.7,70.5,30.25,West,271,0.0,2.0,99,0.00,CLR,,0.20,WeatherDisplay:10.37,2013-01-29 16:25:00,
2013-01-29 11:30:00,71.6,71.3,30.24,WSW,254,1.0,3.0,99,0.00,CLR,,0.20,WeatherDisplay:10.37,2013-01-29 16:30:00,
2013-01-29 11:35:00,72.5,71.6,30.24,WSW,250,0.0,5.0,97,0.00,CLR,,0.20,WeatherDisplay:10.37,2013-01-29 16:35:00,
2013-01-29 11:40:00,73.3,71.8,30.24,SSW,204,1.0,4.0,95,0.00,CLR,,0.20,WeatherDisplay:10.37,2013-01-29 16:40:00,
2013-01-29 11:45:00,74.2,71.4,30.24,WNW,293,0.0,3.0,91,0.00,CLR,,0.20,WeatherDisplay:10.37,2013-01-29 16:45:00,
2013-01-29 11:55:00,75.2,70.0,30.23,SW,222,1.0,8.0,84,0.00,CLR,,0.20,WeatherDisplay:10.37,2013-01-29 16:55:00,
2013-01-29 12:00:00,75.4,69.9,30.23,WSW,241,0.0,6.0,83,0.00,CLR,,0.20,WeatherDisplay:10.37,2013-01-29 17:00:00,
2013-01-29 12:05:00,75.9,70.4,30.22,WNW,283,0.0,2.0,83,0.00,CLR,,0.20,WeatherDisplay:10.37,2013-01-29 17:05:00,
2013-01-29 12:15:00,76.8,69.8,30.22,West,263,1.0,3.0,79,0.00,CLR,,0.20,WeatherDisplay:10.37,2013-01-29 17:15:00,
2013-01-29 12:25:00,77.2,68.6,30.21,WSW,238,0.0,4.0,75,0.00,CLR,,0.20,WeatherDisplay:10.37,2013-01-29 17:25:00,
2013-01-29 12:35:00,77.5,69.0,30.20,WSW,255,1.0,5.0,75,0.00,CLR,,0.20,WeatherDisplay:10.37,2013-01-29 17:35:00,
2013-01-29 12:40:00,77.7,69.2,30.20,SW,227,2.0,8.0,75,0.00,CLR,,0.20,WeatherDisplay:10.37,2013-01-29 17:40:00,
2013-01-29 12:45:00,78.3,67.7,30.19,SSW,209,2.0,6.0,70,0.00,CLR,,0.20,WeatherDisplay:10.37,2013-01-29 17:45:00,
2013-01-29 12:50:00,78.6,68.0,30.19,SSW,199,1.0,5.0,70,0.00,CLR,,0.20,WeatherDisplay:10.37,2013-01-29 17:50:00,
2013-01-29 12:55:00,79.0,67.1,30.19,SSW,198,2.0,6.0,67,0.00,CLR,,0.20,WeatherDisplay:10.37,2013-01-29 17:55:00,
2013-01-29 13:00:00,79.0,67.1,30.18,SW,220,2.0,7.0,67,0.00,CLR,,0.20,WeatherDisplay:10.37,2013-01-29 18:00:00,
2013-01-29 13:05:00,79.0,66.6,30.18,SW,224,0.0,8.0,66,0.00,CLR,,0.20,WeatherDisplay:10.37,2013-01-29 18:05:00,
2013-01-29 13:10:00,79.2,65.9,30.18,SW,215,3.0,11.0,64,0.00,CLR,,0.20,WeatherDisplay:10.37,2013-01-29 18:10:00,
2013-01-29 13:15:00,79.3,65.2,30.17,South,184,3.0,8.0,62,0.00,CLR,,0.20,WeatherDisplay:10.37,2013-01-29 18:15:00,
2013-01-29 13:20:00,79.5,65.8,30.17,SSW,194,1.0,8.0,63,0.00,CLR,,0.20,WeatherDisplay:10.37,2013-01-29 18:20:00,
2013-01-29 13:25:00,79.9,66.6,30.17,SSW,210,1.0,5.0,64,0.00,CLR,,0.20,WeatherDisplay:10.37,2013-01-29 18:25:00,
2013-01-29 13:30:00,79.6,65.9,30.17,West,265,1.0,6.0,63,0.00,CLR,,0.20,WeatherDisplay:10.37,2013-01-29 18:30:00,
2013-01-29 13:35:00,79.3,66.5,30.17,West,275,1.0,4.0,65,0.00,CLR,,0.20,WeatherDisplay:10.37,2013-01-29 18:35:00,
2013-01-29 13:40:00,79.8,66.9,30.16,West,265,1.0,3.0,65,0.00,CLR,,0.20,WeatherDisplay:10.37,2013-01-29 18:40:00,
2013-01-29 13:45:00,79.9,66.1,30.16,WNW,298,1.0,3.0,63,0.00,CLR,,0.20,WeatherDisplay:10.37,2013-01-29 18:45:00,
2013-01-29 13:50:00,79.7,66.0,30.16,West,281,0.0,3.0,63,0.00,CLR,,0.20,WeatherDisplay:10.37,2013-01-29 18:50:00,
2013-01-29 13:55:00,79.5,65.8,30.16,SW,223,0.0,3.0,63,0.00,CLR,,0.20,WeatherDisplay:10.37,2013-01-29 18:55:00,
2013-01-29 14:00:00,79.3,65.6,30.16,SW,231,0.0,4.0,63,0.00,CLR,,0.20,WeatherDisplay:10.37,2013-01-29 19:00:00,
2013-01-29 14:05:00,79.3,65.2,30.15,West,276,1.0,3.0,62,0.00,CLR,,0.20,WeatherDisplay:10.37,2013-01-29 19:05:00,
2013-01-29 14:10:00,79.3,64.7,30.16,WNW,295,0.0,2.0,61,0.00,CLR,,0.20,WeatherDisplay:10.37,2013-01-29 19:10:00,
2013-01-29 14:15:00,79.3,64.2,30.15,West,265,1.0,6.0,60,0.00,CLR,,0.20,WeatherDisplay:10.37,2013-01-29 19:15:00,
2013-01-29 14:20:00,78.9,64.8,30.15,WSW,247,0.0,4.0,62,0.00,CLR,,0.20,WeatherDisplay:10.37,2013-01-29 19:20:00,
2013-01-29 14:25:00,78.3,64.6,30.15,WSW,239,1.0,3.0,63,0.00,CLR,,0.20,WeatherDisplay:10.37,2013-01-29 19:25:00,
2013-01-29 14:30:00,78.2,65.0,30.15,WSW,258,1.0,3.0,64,0.00,CLR,,0.20,WeatherDisplay:10.37,2013-01-29 19:30:00,
2013-01-29 14:35:00,78.1,64.5,30.15,SSW,209,2.0,7.0,63,0.00,CLR,,0.20,WeatherDisplay:10.37,2013-01-29 19:35:00,
2013-01-29 14:40:00,78.1,64.9,30.15,SW,230,0.0,5.0,64,0.00,CLR,,0.20,WeatherDisplay:10.37,2013-01-29 19:40:00,
2013-01-29 14:45:00,78.1,64.4,30.15,West,280,0.0,3.0,63,0.00,CLR,,0.20,WeatherDisplay:10.37,2013-01-29 19:45:00,
2013-01-29 14:50:00,77.5,64.4,30.15,WSW,239,0.0,2.0,64,0.00,CLR,,0.20,WeatherDisplay:10.37,2013-01-29 19:50:00,
2013-01-29 14:55:00,77.4,64.7,30.14,WSW,258,0.0,2.0,65,0.00,CLR,,0.20,WeatherDisplay:10.37,2013-01-29 19:55:00,
2013-01-29 15:00:00,77.3,65.5,30.14,WNW,289,1.0,3.0,67,0.00,CLR,,0.20,WeatherDisplay:10.37,2013-01-29 20:00:00,
2013-01-29 15:05:00,77.5,64.8,30.14,West,272,1.0,6.0,65,0.00,CLR,,0.20,WeatherDisplay:10.37,2013-01-29 20:05:00,
2013-01-29 15:10:00,77.4,63.8,30.14,WSW,244,0.0,3.0,63,0.00,CLR,,0.20,WeatherDisplay:10.37,2013-01-29 20:10:00,
2013-01-29 15:15:00,77.2,64.1,30.14,SW,230,0.0,3.0,64,0.00,CLR,,0.20,WeatherDisplay:10.37,2013-01-29 20:15:00,
2013-01-29 15:20:00,77.2,64.5,30.14,SW,230,0.0,3.0,65,0.00,CLR,,0.20,WeatherDisplay:10.37,2013-01-29 20:20:00,
2013-01-29 15:25:00,77.2,64.1,30.14,WSW,243,0.0,2.0,64,0.00,CLR,,0.20,WeatherDisplay:10.37,2013-01-29 20:25:00,
2013-01-29 15:30:00,77.2,66.2,30.14,SSW,213,1.0,5.0,69,0.00,CLR,,0.20,WeatherDisplay:10.37,2013-01-29 20:30:00,
2013-01-29 15:35:00,76.9,66.4,30.14,SSW,193,3.0,6.0,70,0.00,CLR,,0.20,WeatherDisplay:10.37,2013-01-29 20:35:00,
2013-01-29 15:40:00,76.5,66.4,30.14,SSW,195,1.0,5.0,71,0.00,CLR,,0.20,WeatherDisplay:10.37,2013-01-29 20:40:00,
2013-01-29 15:45:00,76.1,66.4,30.15,SW,229,0.0,5.0,72,0.00,CLR,,0.20,WeatherDisplay:10.37,2013-01-29 20:45:00,
2013-01-29 15:50:00,75.9,66.6,30.15,SW,225,1.0,3.0,73,0.00,CLR,,0.20,WeatherDisplay:10.37,2013-01-29 20:50:00,
2013-01-29 16:00:00,75.6,67.1,30.15,South,181,1.0,4.0,75,0.00,CLR,,0.20,WeatherDisplay:10.37,2013-01-29 21:00:00,
2013-01-29 16:05:00,75.9,67.4,30.15,South,190,0.0,2.0,75,0.00,CLR,,0.20,WeatherDisplay:10.37,2013-01-29 21:05:00,
2013-01-29 16:10:00,75.7,67.2,30.15,WSW,255,1.0,2.0,75,0.00,CLR,,0.20,WeatherDisplay:10.37,2013-01-29 21:10:00,
2013-01-29 16:15:00,75.6,67.1,30.14,SW,226,0.0,6.0,75,0.00,CLR,,0.20,WeatherDisplay:10.37,2013-01-29 21:15:00,
2013-01-29 16:20:00,75.4,66.9,30.14,SSW,207,1.0,4.0,75,0.00,CLR,,0.20,WeatherDisplay:10.37,2013-01-29 21:20:00,
2013-01-29 16:30:00,74.8,66.8,30.14,SSW,195,1.0,5.0,76,0.00,CLR,,0.20,WeatherDisplay:10.37,2013-01-29 21:30:00,
2013-01-29 16:35:00,74.3,66.6,30.13,SSW,204,0.0,5.0,77,0.00,CLR,,0.20,WeatherDisplay:10.37,2013-01-29 21:35:00,
2013-01-29 16:40:00,74.1,66.8,30.14,SSW,196,1.0,5.0,78,0.00,CLR,,0.20,WeatherDisplay:10.37,2013-01-29 21:40:00,
2013-01-29 16:45:00,73.9,66.6,30.14,South,188,2.0,5.0,78,0.00,CLR,,0.20,WeatherDisplay:10.37,2013-01-29 21:45:00,
2013-01-29 16:50:00,73.8,66.8,30.14,South,178,2.0,5.0,79,0.00,CLR,,0.20,WeatherDisplay:10.37,2013-01-29 21:50:00,
2013-01-29 16:55:00,73.5,66.6,30.14,South,181,2.0,6.0,79,0.00,CLR,,0.20,WeatherDisplay:10.37,2013-01-29 21:55:00,
2013-01-29 17:00:00,73.2,66.7,30.14,SW,215,1.0,6.0,80,0.00,CLR,,0.20,WeatherDisplay:10.37,2013-01-29 22:00:00,
2013-01-29 17:05:00,72.7,66.2,30.13,SW,223,1.0,3.0,80,0.00,CLR,,0.20,WeatherDisplay:10.37,2013-01-29 22:05:00,
2013-01-29 17:10:00,72.3,66.2,30.14,SSW,201,1.0,4.0,81,0.00,CLR,,0.20,WeatherDisplay:10.37,2013-01-29 22:10:00,
2013-01-29 17:15:00,72.0,66.5,30.14,SSW,192,1.0,4.0,83,0.00,CLR,,0.20,WeatherDisplay:10.37,2013-01-29 22:15:00,
2013-01-29 17:20:00,71.6,66.5,30.14,SSW,196,1.0,4.0,84,0.00,CLR,,0.20,WeatherDisplay:10.37,2013-01-29 22:20:00,
2013-01-29 17:25:00,71.1,66.4,30.14,SSW,207,1.0,4.0,85,0.00,CLR,,0.20,WeatherDisplay:10.37,2013-01-29 22:25:00,
2013-01-29 17:30:00,70.7,66.3,30.14,South,190,1.0,4.0,86,0.00,CLR,,0.20,WeatherDisplay:10.37,2013-01-29 22:30:00,
2013-01-29 17:35:00,70.5,66.7,30.14,SSE,166,2.0,6.0,88,0.00,CLR,,0.20,WeatherDisplay:10.37,2013-01-29 22:35:00,
2013-01-29 17:40:00,70.2,66.5,30.14,South,191,0.0,3.0,88,0.00,CLR,,0.20,WeatherDisplay:10.37,2013-01-29 22:40:00,
2013-01-29 17:50:00,69.6,66.2,30.14,SSW,196,0.0,2.0,89,0.00,CLR,,0.20,WeatherDisplay:10.37,2013-01-29 22:50:00,
2013-01-29 17:55:00,69.4,66.0,30.14,South,188,0.0,2.0,89,0.00,CLR,,0.20,WeatherDisplay:10.37,2013-01-29 22:55:00,
2013-01-29 18:05:00,68.5,66.1,30.14,SW,219,1.0,2.0,92,0.00,CLR,,0.20,WeatherDisplay:10.37,2013-01-29 23:05:00,
2013-01-29 18:10:00,68.0,66.2,30.14,SW,226,1.0,2.0,94,0.00,CLR,,0.20,WeatherDisplay:10.37,2013-01-29 23:10:00,
2013-01-29 18:15:00,67.6,66.2,30.14,SSW,207,1.0,3.0,95,0.00,CLR,,0.20,WeatherDisplay:10.37,2013-01-29 23:15:00,
2013-01-29 18:20:00,67.3,65.8,30.14,SSW,194,1.0,2.0,95,0.00,CLR,,0.20,WeatherDisplay:10.37,2013-01-29 23:20:00,
2013-01-29 18:25:00,67.0,65.8,30.14,SSW,203,0.0,2.0,96,0.00,CLR,,0.20,WeatherDisplay:10.37,2013-01-29 23:25:00,
2013-01-29 18:30:00,66.6,65.7,30.14,SSW,199,0.0,2.0,97,0.00,CLR,,0.20,WeatherDisplay:10.37,2013-01-29 23:30:00,
2013-01-29 18:35:00,66.3,65.5,30.14,SSW,193,0.0,2.0,97,0.00,CLR,,0.20,WeatherDisplay:10.37,2013-01-29 23:35:00,
2013-01-29 18:40:00,66.0,65.4,30.14,SSW,193,0.0,2.0,98,0.00,CLR,,0.20,WeatherDisplay:10.37,2013-01-29 23:40:00,
2013-01-29 18:45:00,65.7,65.4,30.14,South,188,0.0,2.0,99,0.00,CLR,,0.20,WeatherDisplay:10.37,2013-01-29 23:45:00,
2013-01-29 18:50:00,65.3,65.0,30.14,South,188,1.0,2.0,99,0.00,CLR,,0.20,WeatherDisplay:10.37,2013-01-29 23:50:00,
2013-01-29 18:55:00,65.3,65.0,30.14,South,191,0.0,4.0,99,0.00,CLR,,0.20,WeatherDisplay:10.37,2013-01-29 23:55:00,
2013-01-29 19:00:00,65.2,64.9,30.14,South,188,1.0,2.0,99,0.00,CLR,,0.20,WeatherDisplay:10.37,2013-01-30 00:00:00,
2013-01-29 19:05:00,65.1,64.8,30.14,South,188,1.0,2.0,99,0.00,CLR,,0.20,WeatherDisplay:10.37,2013-01-30 00:05:00,
2013-01-29 19:10:00,65.1,64.8,30.14,South,191,1.0,2.0,99,0.00,CLR,,0.20,WeatherDisplay:10.37,2013-01-30 00:10:00,
2013-01-29 19:15:00,65.1,64.8,30.14,SSW,194,1.0,2.0,99,0.00,CLR,,0.20,WeatherDisplay:10.37,2013-01-30 00:15:00,
2013-01-29 19:20:00,64.9,64.7,30.14,South,188,1.0,2.0,99,0.00,CLR,,0.20,WeatherDisplay:10.37,2013-01-30 00:20:00,
2013-01-29 19:25:00,64.8,64.6,30.14,South,188,0.0,2.0,99,0.00,CLR,,0.20,WeatherDisplay:10.37,2013-01-30 00:25:00,
2013-01-29 19:30:00,64.6,64.3,30.14,South,188,0.0,2.0,99,0.00,CLR,,0.20,WeatherDisplay:10.37,2013-01-30 00:30:00,
2013-01-29 19:35:00,64.4,64.1,30.14,South,188,0.0,1.0,99,0.00,CLR,,0.20,WeatherDisplay:10.37,2013-01-30 00:35:00,
2013-01-29 19:40:00,63.9,63.6,30.14,SSW,192,0.0,3.0,99,0.00,CLR,,0.20,WeatherDisplay:10.37,2013-01-30 00:40:00,
2013-01-29 19:45:00,63.7,63.4,30.14,SSW,193,0.0,2.0,99,0.00,CLR,,0.20,WeatherDisplay:10.37,2013-01-30 00:45:00,
2013-01-29 19:50:00,63.5,63.2,30.14,South,190,1.0,2.0,99,0.00,CLR,,0.20,WeatherDisplay:10.37,2013-01-30 00:50:00,
2013-01-29 19:55:00,63.7,63.4,30.15,SSW,198,1.0,2.0,99,0.00,CLR,,0.20,WeatherDisplay:10.37,2013-01-30 00:55:00,
2013-01-29 20:00:00,63.5,63.2,30.15,SSW,192,1.0,2.0,99,0.00,CLR,,0.20,WeatherDisplay:10.37,2013-01-30 01:00:00,
2013-01-29 20:05:00,63.5,63.2,30.15,South,188,1.0,2.0,99,0.00,CLR,,0.20,WeatherDisplay:10.37,2013-01-30 01:05:00,
2013-01-29 20:10:00,63.2,62.9,30.15,South,188,0.0,2.0,99,0.00,CLR,,0.20,WeatherDisplay:10.37,2013-01-30 01:10:00,
2013-01-29 20:15:00,63.3,63.0,30.15,South,188,0.0,2.0,99,0.00,CLR,,0.20,WeatherDisplay:10.37,2013-01-30 01:15:00,
2013-01-29 20:20:00,63.3,63.0,30.15,South,188,0.0,2.0,99,0.00,CLR,,0.20,WeatherDisplay:10.37,2013-01-30 01:20:00,
2013-01-29 20:25:00,63.0,62.7,30.15,SSW,208,1.0,2.0,99,0.00,CLR,,0.20,WeatherDisplay:10.37,2013-01-30 01:25:00,
2013-01-29 20:30:00,63.0,62.7,30.15,SSW,195,1.0,3.0,99,0.00,CLR,,0.20,WeatherDisplay:10.37,2013-01-30 01:30:00,
2013-01-29 20:35:00,63.0,62.7,30.15,South,188,1.0,3.0,99,0.00,CLR,,0.20,WeatherDisplay:10.37,2013-01-30 01:35:00,
2013-01-29 20:40:00,63.0,62.7,30.15,South,188,1.0,2.0,99,0.00,CLR,,0.20,WeatherDisplay:10.37,2013-01-30 01:40:00,
2013-01-29 20:45:00,63.3,63.0,30.15,SW,215,1.0,3.0,99,0.00,CLR,,0.20,WeatherDisplay:10.37,2013-01-30 01:45:00,
2013-01-29 20:50:00,63.3,63.0,30.15,WSW,257,1.0,3.0,99,0.00,CLR,,0.20,WeatherDisplay:10.37,2013-01-30 01:50:00,
2013-01-29 20:55:00,63.3,63.0,30.15,NNW,329,1.0,3.0,99,0.00,CLR,,0.20,WeatherDisplay:10.37,2013-01-30 01:55:00,
2013-01-29 21:00:00,63.3,63.0,30.15,SSW,213,0.0,2.0,99,0.00,CLR,,0.20,WeatherDisplay:10.37,2013-01-30 02:00:00,
2013-01-29 21:05:00,63.3,63.0,30.15,SSW,192,0.0,2.0,99,0.00,CLR,,0.20,WeatherDisplay:10.37,2013-01-30 02:05:00,
2013-01-29 21:10:00,63.1,62.9,30.15,South,188,0.0,2.0,99,0.00,CLR,,0.20,WeatherDisplay:10.37,2013-01-30 02:10:00,
2013-01-29 21:15:00,63.0,62.7,30.16,South,188,1.0,2.0,99,0.00,CLR,,0.20,WeatherDisplay:10.37,2013-01-30 02:15:00,
2013-01-29 21:20:00,62.8,62.5,30.15,South,188,0.0,1.0,99,0.00,CLR,,0.20,WeatherDisplay:10.37,2013-01-30 02:20:00,
2013-01-29 21:25:00,62.4,62.1,30.15,South,188,0.0,1.0,99,0.00,CLR,,0.20,WeatherDisplay:10.37,2013-01-30 02:25:00,
2013-01-29 21:30:00,62.4,62.1,30.15,South,188,0.0,2.0,99,0.00,CLR,,0.20,WeatherDisplay:10.37,2013-01-30 02:30:00,
2013-01-29 21:35:00,62.2,62.0,30.15,South,188,0.0,2.0,99,0.00,CLR,,0.20,WeatherDisplay:10.37,2013-01-30 02:35:00,
2013-01-29 21:40:00,62.1,61.8,30.16,South,188,0.0,1.0,99,0.00,CLR,,0.20,WeatherDisplay:10.37,2013-01-30 02:40:00,
2013-01-29 21:45:00,62.1,61.8,30.15,South,188,0.0,1.0,99,0.00,CLR,,0.20,WeatherDisplay:10.37,2013-01-30 02:45:00,
2013-01-29 21:50:00,61.7,61.4,30.15,South,188,0.0,1.0,99,0.00,CLR,,0.20,WeatherDisplay:10.37,2013-01-30 02:50:00,
2013-01-29 21:55:00,61.7,61.4,30.15,South,188,0.0,0.0,99,0.00,CLR,,0.20,WeatherDisplay:10.37,2013-01-30 02:55:00,
2013-01-29 22:00:00,61.3,61.1,30.15,South,188,0.0,1.0,99,0.00,CLR,,0.20,WeatherDisplay:10.37,2013-01-30 03:00:00,
2013-01-29 22:05:00,61.3,61.1,30.15,South,188,0.0,1.0,99,0.00,CLR,,0.20,WeatherDisplay:10.37,2013-01-30 03:05:00,
2013-01-29 22:10:00,61.0,60.7,30.15,South,188,0.0,1.0,99,0.00,CLR,,0.20,WeatherDisplay:10.37,2013-01-30 03:10:00,
2013-01-29 22:15:00,61.0,60.7,30.15,South,188,0.0,0.0,99,0.00,CLR,,0.20,WeatherDisplay:10.37,2013-01-30 03:15:00,
2013-01-29 22:20:00,60.6,60.3,30.15,South,188,0.0,1.0,99,0.00,CLR,,0.20,WeatherDisplay:10.37,2013-01-30 03:20:00,
2013-01-29 22:25:00,60.4,60.2,30.15,South,188,0.0,2.0,99,0.00,CLR,,0.20,WeatherDisplay:10.37,2013-01-30 03:25:00,
2013-01-29 22:30:00,60.4,60.2,30.15,South,188,0.0,2.0,99,0.00,CLR,,0.20,WeatherDisplay:10.37,2013-01-30 03:30:00,
2013-01-29 22:35:00,60.4,60.2,30.15,South,188,0.0,0.0,99,0.00,CLR,,0.20,WeatherDisplay:10.37,2013-01-30 03:35:00,
2013-01-29 22:40:00,60.4,60.2,30.15,SSW,192,0.0,0.0,99,0.00,CLR,,0.20,WeatherDisplay:10.37,2013-01-30 03:40:00,
2013-01-29 22:45:00,60.3,60.0,30.15,SSW,201,0.0,0.0,99,0.00,CLR,,0.20,WeatherDisplay:10.37,2013-01-30 03:45:00,
2013-01-29 22:50:00,60.3,60.0,30.15,SSW,194,0.0,1.0,99,0.00,CLR,,0.20,WeatherDisplay:10.37,2013-01-30 03:50:00,
2013-01-29 22:55:00,60.3,60.0,30.15,South,188,1.0,2.0,99,0.00,CLR,,0.20,WeatherDisplay:10.37,2013-01-30 03:55:00,
2013-01-29 23:00:00,60.3,60.0,30.15,SSE,161,0.0,1.0,99,0.00,CLR,,0.20,WeatherDisplay:10.37,2013-01-30 04:00:00,
2013-01-29 23:05:00,60.3,60.0,30.14,SE,143,0.0,1.0,99,0.00,CLR,,0.20,WeatherDisplay:10.37,2013-01-30 04:05:00,
2013-01-29 23:10:00,60.3,60.0,30.15,SSE,161,0.0,1.0,99,0.00,CLR,,0.20,WeatherDisplay:10.37,2013-01-30 04:10:00,
2013-01-29 23:15:00,60.3,60.0,30.14,South,184,0.0,1.0,99,0.00,CLR,,0.20,WeatherDisplay:10.37,2013-01-30 04:15:00,
2013-01-29 23:20:00,60.3,60.0,30.15,South,188,0.0,1.0,99,0.00,CLR,,0.20,WeatherDisplay:10.37,2013-01-30 04:20:00,
2013-01-29 23:25:00,60.1,59.8,30.15,South,188,0.0,0.0,99,0.00,CLR,,0.20,WeatherDisplay:10.37,2013-01-30 04:25:00,
2013-01-29 23:30:00,60.0,59.8,30.14,South,188,0.0,0.0,99,0.00,CLR,,0.20,WeatherDisplay:10.37,2013-01-30 04:30:00,
2013-01-29 23:35:00,60.1,59.8,30.14,South,188,0.0,0.0,99,0.00,CLR,,0.20,WeatherDisplay:10.37,2013-01-30 04:35:00,
2013-01-29 23:40:00,60.1,59.8,30.15,South,188,0.0,0.0,99,0.00,CLR,,0.20,WeatherDisplay:10.37,2013-01-30 04:40:00,
2013-01-29 23:45:00,60.1,59.8,30.14,South,188,0.0,0.0,99,0.00,CLR,,0.20,WeatherDisplay:10.37,2013-01-30 04:45:00,
2013-01-29 23:50:00,60.1,59.8,30.14,South,177,0.0,2.0,99,0.00,CLR,,0.20,WeatherDisplay:10.37,2013-01-30 04:50:00,
2013-01-29 23:55:00,59.9,59.6,30.14,SSE,154,0.0,1.0,99,0.00,CLR,,0.20,WeatherDisplay:10.37,2013-01-30 04:55:00,